Wind_Speed
17 17 17 17 17 18 19 19 20 21 20 19 18 18 19 19 18 19 19 19 19 19 19 19 18 18 18 17 17 17 16 17 18 17 18 18 18 18
18 18 18 18 18 19 20 20 21 22 22 21 20 20 20 21 21 20 20 20 20 20 20 20 19 19 19 18 18 18 18 18 18 18 18 18 19 19
19 19 20 20 20 21 21 22 22 22 22 22 21 21 21 22 22 22 21 21 20 21 21 21 21 20 20 20 19 19 19 19 19 19 20 20 20 21
22 22 22 22 22 22 22 23 23 23 23 23 22 22 22 22 22 23 22 22 22 22 22 22 22 22 21 21 21 20 20 20 20 20 21 21 22 23
23 23 23 23 23 23 24 24 24 24 24 24 23 23 23 23 23 24 24 24 23 23 23 23 23 22 22 22 22 22 22 22 21 21 21 22 22 23
24 24 24 24 24 24 25 25 25 25 25 25 24 24 24 24 25 25 25 24 24 24 24 24 24 23 23 23 22 23 23 23 23 23 23 23 23 24
25 24 25 24 25 25 26 26 26 25 25 25 25 25 25 25 25 25 25 24 24 24 24 23 24 24 23 23 23 23 24 24 24 24 24 25 25 24
26 25 25 25 25 25 26 25 26 26 26 26 26 26 25 25 25 25 25 24 24 24 24 23 24 24 24 23 24 24 25 25 25 25 25 26 25 25
26 25 25 24 24 25 25 26 26 27 27 26 26 26 26 26 26 26 26 25 25 25 25 25 25 26 26 25 25 25 26 26 26 26 26 27 27 27
25 25 24 25 25 26 27 27 27 27 27 27 26 26 27 27 26 26 27 27 27 27 26 26 26 26 26 26 26 26 26 26 27 26 26 27 28 28
26 25 25 26 26 27 27 27 27 27 27 27 27 27 27 27 27 27 27 27 27 26 26 26 26 25 25 26 26 26 26 27 27 28 28 27 28 27
26 26 26 26 27 27 27 27 27 27 27 27 27 28 28 28 28 28 27 26 26 26 25 26 26 26 26 26 26 26 26 26 27 28 28 27 27 28
26 26 26 27 27 28 28 28 28 27 27 27 27 27 27 28 28 28 27 27 27 26 26 26 27 27 27 26 26 26 26 27 27 26 27 27 28 28
27 27 27 27 28 28 28 28 28 28 28 27 27 27 27 27 27 27 27 27 27 27 27 27 27 27 27 27 27 27 27 26 27 27 27 28 29 29
28 27 27 28 28 28 29 29 28 28 28 27 27 27 26 27 27 27 27 27 28 28 27 28 28 28 28 27 27 26 26 26 26 27 28 28 29 29
28 28 28 28 28 28 28 29 29 28 28 27 27 27 27 27 27 27 27 27 27 27 28 29 28 27 27 27 27 27 27 27 26 27 27 28 28 28
29 29 29 29 28 28 28 28 29 29 28 28 28 28 27 28 28 27 27 27 27 28 27 27 26 27 27 27 26 26 27 27 26 26 27 27 27 28
30 29 29 29 29 29 29 29 30 29 29 29 29 29 29 29 29 29 28 27 27 27 27 27 26 26 26 25 26 27 28 28 27 27 27 28 27 28
30 29 29 30 30 30 30 30 30 30 30 30 30 29 29 29 28 28 27 27 26 26 26 26 26 26 26 26 26 27 28 27 27 27 27 28 28 28
30 29 29 30 30 30 30 30 31 31 30 30 30 29 29 28 27 26 26 26 26 26 26 26 26 26 26 26 27 27 27 27 27 27 28 28 28 28
30 29 30 30 30 30 30 30 30 30 30 30 29 28 27 26 26 26 26 26 26 26 26 26 26 26 26 26 26 26 27 27 27 28 28 28 28 28
29 29 29 30 30 30 30 30 29 30 29 29 28 28 28 26 26 26 26 26 27 27 27 26 26 27 27 27 26 26 26 27 27 27 27 28 28 29
30 30 30 30 30 30 30 30 29 29 29 29 29 29 28 27 27 27 26 26 27 27 27 26 26 27 27 27 27 26 27 27 27 26 26 27 27 28
Wind_Direction
311 312 313 309 307 306 306 306 305 303 301 298 295 294 293 295 292 291 292 292 294 293 291 290 288 285 283 280 276 271 269 265 262 261 259 257 254 251
309 310 311 310 305 303 304 302 303 303 301 299 297 295 294 295 295 293 292 291 291 291 289 289 288 286 282 281 279 273 269 266 262 261 260 257 255 251
309 308 308 307 304 304 302 301 302 303 301 299 299 297 296 296 295 293 290 289 288 288 287 286 285 284 282 279 280 274 268 266 263 261 259 258 256 253
308 306 305 304 304 303 303 302 302 301 300 299 297 297 297 295 296 292 291 290 288 287 285 285 284 283 281 279 277 274 270 268 266 264 262 261 260 256
306 305 303 303 304 303 303 303 302 300 299 299 297 295 295 294 294 293 291 290 289 288 285 284 283 282 281 279 276 275 273 270 269 266 266 265 262 259
306 305 304 301 302 303 303 301 300 299 299 298 296 295 294 294 294 293 291 290 290 288 287 285 283 281 280 279 277 275 274 273 271 268 267 266 264 261
306 305 304 303 301 301 301 300 299 299 299 298 297 295 294 294 294 294 292 289 289 288 286 284 283 282 279 278 277 274 272 272 271 269 268 265 264 262
305 304 304 303 303 303 302 300 300 300 300 298 297 296 295 295 294 292 291 289 286 284 284 283 282 280 278 276 275 275 272 270 269 268 267 267 264 261
305 303 303 303 304 305 304 303 301 300 299 297 296 295 295 294 294 292 290 288 287 285 283 283 283 281 278 276 275 273 271 270 270 270 268 266 265 263
303 302 301 302 303 304 305 305 303 300 298 296 295 294 294 293 293 292 289 289 288 286 284 283 283 282 279 278 274 272 272 270 270 269 270 267 265 264
301 301 300 302 303 304 305 304 302 299 296 294 294 294 293 292 292 291 291 290 288 287 286 284 283 281 280 278 277 275 274 272 270 269 267 266 265 263
300 300 300 302 303 303 304 304 301 299 296 294 293 293 293 292 292 292 291 289 287 286 286 285 283 282 281 280 279 276 274 273 271 269 266 265 264 262
297 297 299 300 301 301 302 303 303 301 298 296 294 294 293 294 294 292 290 288 286 285 284 284 283 282 281 281 280 278 275 273 272 271 269 267 264 262
296 296 298 299 301 301 302 303 304 302 300 298 297 297 297 296 296 293 290 288 287 286 284 284 284 282 281 281 281 279 277 275 273 271 270 267 266 265
295 295 297 299 300 301 301 302 303 302 301 300 298 298 296 295 294 292 290 290 289 285 283 283 285 284 282 281 280 278 276 275 274 272 270 268 267 266
293 294 296 298 300 300 301 302 304 302 301 301 299 297 295 293 295 294 292 290 288 285 285 285 285 284 284 282 280 279 278 276 274 273 272 271 270 268
292 293 295 297 298 300 301 301 303 302 300 299 299 298 296 293 294 293 292 291 289 287 286 286 284 284 285 285 283 281 278 276 275 274 273 273 271 271
292 293 294 295 297 299 300 300 302 302 302 301 301 300 298 296 294 293 292 290 290 289 286 286 285 284 284 284 283 283 281 278 277 276 277 276 275 272
292 293 294 295 296 298 300 300 301 301 302 302 302 300 300 299 295 293 291 291 290 290 288 288 287 286 285 284 284 284 282 280 277 277 278 277 277 274
291 293 294 295 295 296 298 300 302 302 301 300 300 299 299 299 297 295 293 293 292 290 288 289 289 288 287 286 285 284 282 281 278 277 277 277 276 274
292 292 293 295 296 297 298 299 301 301 300 299 299 298 298 298 298 297 296 295 294 293 291 289 289 288 288 288 286 284 283 282 281 279 278 277 275 274
292 293 294 295 296 296 297 299 300 301 300 299 298 297 296 295 296 296 295 295 294 294 293 290 287 286 286 287 286 285 285 283 281 279 279 278 276 275
289 292 294 295 295 295 296 297 298 298 299 299 298 297 295 294 296 296 296 296 295 294 293 288 286 287 287 288 286 286 286 284 281 280 279 278 277 276
Height
5861 5859 5857 5856 5854 5853 5851 5849 5848 5846 5845 5843 5842 5841 5840 5840 5839 5838 5836 5835 5834 5832 5831 5830 5829 5828 5828 5827 5826 5826 5826 5827 5827 5828 5829 5830 5831 5833
5857 5855 5853 5851 5850 5848 5847 5845 5843 5842 5840 5839 5837 5836 5835 5834 5833 5832 5831 5830 5828 5827 5826 5825 5824 5823 5823 5822 5822 5821 5821 5822 5822 5823 5824 5825 5826 5828
5853 5851 5849 5847 5845 5843 5842 5840 5838 5836 5835 5834 5832 5831 5829 5828 5827 5826 5825 5824 5823 5821 5821 5820 5819 5818 5817 5817 5816 5816 5816 5816 5817 5818 5819 5820 5821 5822
5848 5846 5844 5842 5840 5838 5837 5835 5833 5831 5830 5828 5827 5825 5824 5822 5821 5820 5818 5817 5816 5815 5814 5813 5813 5812 5811 5811 5810 5810 5810 5811 5811 5812 5813 5814 5815 5816
5843 5841 5839 5837 5835 5833 5831 5829 5827 5825 5824 5822 5821 5819 5818 5816 5815 5813 5812 5810 5809 5808 5808 5807 5806 5806 5805 5804 5804 5804 5804 5804 5805 5805 5806 5807 5808 5809
5838 5835 5833 5831 5829 5827 5825 5823 5821 5819 5817 5816 5815 5813 5812 5810 5808 5807 5806 5804 5803 5802 5801 5800 5799 5799 5798 5798 5797 5797 5797 5797 5798 5798 5799 5800 5800 5802
5832 5829 5827 5825 5823 5820 5818 5816 5814 5812 5811 5809 5808 5807 5805 5803 5802 5800 5799 5797 5796 5794 5794 5793 5793 5792 5791 5791 5791 5791 5790 5790 5790 5791 5791 5792 5792 5794
5825 5823 5821 5818 5816 5814 5812 5810 5808 5805 5804 5802 5801 5799 5798 5796 5794 5792 5791 5790 5789 5789 5787 5786 5786 5785 5784 5784 5784 5783 5783 5783 5783 5783 5784 5784 5785 5786
5819 5817 5814 5812 5810 5808 5805 5803 5801 5799 5797 5795 5793 5792 5790 5789 5787 5785 5784 5782 5781 5781 5780 5779 5778 5778 5777 5776 5776 5776 5775 5775 5775 5775 5776 5776 5777 5778
5813 5810 5808 5806 5804 5801 5799 5796 5794 5792 5790 5788 5786 5784 5782 5781 5779 5778 5776 5775 5774 5773 5772 5771 5770 5770 5769 5768 5768 5768 5767 5767 5767 5767 5767 5768 5769 5770
5806 5804 5802 5800 5797 5795 5792 5790 5787 5785 5782 5780 5778 5776 5774 5773 5771 5770 5768 5767 5766 5765 5764 5763 5762 5761 5761 5760 5760 5759 5759 5759 5759 5759 5759 5759 5760 5761
5800 5798 5795 5793 5791 5788 5785 5783 5780 5777 5775 5773 5771 5769 5767 5764 5763 5761 5760 5758 5757 5757 5756 5755 5754 5753 5753 5752 5752 5751 5751 5750 5750 5750 5750 5750 5751 5751
5793 5791 5789 5786 5784 5781 5778 5776 5773 5770 5767 5765 5763 5760 5758 5756 5754 5753 5752 5751 5750 5749 5748 5747 5746 5745 5744 5744 5743 5743 5742 5741 5741 5741 5741 5741 5741 5742
5786 5784 5781 5779 5776 5774 5771 5768 5766 5763 5760 5757 5755 5752 5750 5748 5747 5745 5744 5743 5742 5741 5740 5738 5737 5736 5735 5735 5734 5734 5733 5732 5732 5732 5732 5732 5732 5732
5778 5776 5774 5771 5769 5766 5764 5761 5758 5755 5752 5750 5747 5745 5743 5741 5739 5737 5736 5734 5733 5731 5730 5729 5728 5727 5726 5726 5725 5724 5723 5723 5722 5722 5722 5722 5722 5722
5770 5768 5766 5764 5761 5759 5756 5753 5750 5747 5745 5742 5739 5737 5735 5733 5731 5729 5727 5726 5724 5723 5721 5720 5719 5718 5717 5716 5715 5714 5714 5713 5713 5713 5713 5713 5712 5712
5762 5760 5758 5756 5754 5751 5748 5746 5743 5740 5737 5735 5732 5729 5727 5725 5723 5720 5719 5717 5716 5714 5713 5711 5710 5708 5707 5706 5706 5705 5704 5704 5704 5704 5703 5703 5703 5703
5754 5752 5750 5748 5746 5743 5741 5738 5735 5732 5729 5727 5724 5721 5719 5717 5714 5712 5710 5709 5707 5705 5704 5703 5702 5700 5699 5698 5697 5696 5695 5695 5694 5694 5694 5693 5693 5693
5746 5744 5742 5739 5737 5735 5732 5730 5727 5724 5721 5718 5715 5713 5710 5708 5706 5704 5702 5700 5698 5697 5695 5694 5693 5691 5690 5690 5689 5687 5686 5685 5684 5684 5684 5684 5683 5683
5737 5735 5733 5731 5729 5726 5724 5721 5718 5715 5713 5710 5707 5705 5702 5700 5697 5695 5693 5692 5690 5689 5687 5686 5684 5683 5681 5680 5679 5678 5676 5675 5674 5674 5674 5673 5673 5673
5729 5727 5725 5723 5720 5718 5716 5713 5710 5707 5704 5702 5699 5696 5694 5692 5690 5688 5686 5684 5682 5680 5679 5677 5676 5674 5672 5671 5670 5669 5668 5666 5665 5664 5664 5663 5663 5663
5720 5718 5716 5714 5712 5709 5707 5704 5701 5699 5696 5693 5691 5688 5686 5684 5681 5680 5678 5676 5674 5672 5670 5668 5667 5665 5664 5662 5661 5660 5659 5658 5656 5655 5654 5653 5653 5653
5711 5710 5708 5705 5703 5701 5698 5696 5693 5690 5688 5685 5683 5680 5678 5676 5673 5671 5670 5668 5666 5664 5662 5660 5658 5657 5655 5653 5652 5651 5649 5648 5647 5646 5645 5643 5643 5643